Толидо

США     41°39′23″N   83°35′10″W
темп.,
°C
ветер,
м/с
пор.,
м/с
влажн.,
%
обл.,
%
осадки,
мм/ч
давл.,
гПа
погр.,
м
20 апреля, вт
вт2023:00+5з5108388 0.8 1014948
02:00+5з4773100 0.8 1015698
05:00+4зсз4673100 0.0 1016590
08:00+3сз3566100 0.0 1017530
11:00+5сз3449100 0.0 10181199
14:00+4сз4573100 0.3 1019853
17:00+2ссз3481100 1.4 1018695
20:00+1с3597100 4.1 1017358
21 апреля, ср
ср2123:00+1с4699100 2.8 1016257
02:00+1с59100100 6.4 1015381
05:000ссз6998100 3.6 1015520
08:00−1ссз589182 4.1 1017591
11:00+1сз68745 0.0 10181216
14:00+4сз61054100 0.0 10182129
17:00+6сз61046100 0.1 10172294
20:00+4сз475827 0.2 1017646
22 апреля, чт
чт2223:00+2зсз48675 0.1 1018273
02:000зсз49703 0.1 1018261
05:00−1зсз36705 0.0 1018191
08:00+1зюз47735 0.0 1019310
11:00+6зсз7105135 0.0 10191935
14:00+9зсз7936100 0.2 10182529
17:00+10зсз893799 0.0 10182294
20:00+7з710450 0.0 10191031
23 апреля, пт
пт2323:00+5зюз511500 0.0 1020440
02:00+4зюз614520 0.0 1020402
05:00+3зюз512620 0.0 1020297
08:00+4зюз512630 0.0 1021334
11:00+10зюз575134 0.0 1020796
14:00+13зюз67455 0.0 10191339
17:00+14зюз674294 0.0 10171599
20:00+12юз475367 0.0 1017341
24 апреля, сб
сб2423:00+10юз376350 0.0 1018151
02:00+8юз34735 0.0 101890
05:00+8юз2376100 0.0 101775
08:00+8ю3678100 0.1 1017224
11:00+8ю4882100 0.1 1016409
14:00+9ю4982100 0.3 1015559
17:00+8ю51088100 0.5 1013550
20:00+8ю4992100 1.1 1011378